Location: Azul
(36.7830°S, 59.8500°W)
Time: 12:30:53
(UTC-03:00)

ISS - Pass Details

Date: 17 February 2018
Orbit: 403 x 406 km, 51.6° (Epoch: 26 February)

Event Time Altitude Azimuth Distance (km) Brightness Sun altitude
Exits shadow 04:54:09 - 219° (SW) 2,058 -0.3 -18.9°
Reaches altitude 10° 04:55:39 10° 209° (SSW) 1,497 -0.9 -18.6°
Maximum altitude 04:58:37 28° 148° (SSE) 815 -1.7 -18.1°
Drops below altitude 10° 05:01:33 10° 86° (E) 1,484 -0.2 -17.6°
Sets 05:03:49 0° 73° (ENE) 2,339 0.7 -17.2°
